Home > Weather > Singapore > Past weeks

Flag for Singapore Past Weather in Singapore, Singapore — Yesterday and Last 2 Weeks

Now
84 °F

Partly sunny.


Feels Like: 92 °F
Forecast: 79 / 91 °F
Wind: 9 mph from Southwest

Location: Singapore / Paya Lebar

Current Time: Jun 27, 2016 at 10:23:20 AM

Latest Report: Jun 27, 2016 at 10:00 AM


Visibility: N/A

Pressure: 29.83 "Hg

Humidity: 74%

Dew Point: 75 °F

Location of SingaporeLocation

Past Weather in Singapore — Graph

°F

Singapore Temperature Yesterday

Maximum temperature yesterday: 88 °F (at 11:00 AM)
Minimum temperature yesterday: 82 °F (at 5:00 AM)
Average temperature yesterday: 85 °F

High & Low Weather Summary for the Past Weeks

 TemperatureHumidityPressure
High91 °F (Jun 13, 2:00 PM)100% (Jun 24, 5:00 AM)29.89 "Hg (Jun 24, 5:00 AM)
Low73 °F (Jun 24, 5:00 AM)55% (Jun 20, 12:00 PM)29.71 "Hg (Jun 15, 5:00 PM)
Average84 °F76%29.80 "Hg
* Reported Jun 12 9:00 AM — Jun 27 9:00 AM, Singapore, Weather by CustomWeather, © 2016

Note: Actual official high and low records may vary slightly from our data, if they occured in-between our weather recording intervals... More about our weather records

Advertising

Singapore Weather History for the Previous 24 Hours

Scroll right to see more
 ConditionsComfort  
Time TempWeatherWind HumidityBarometerVisibility
9:00 AM
Mon, Jun 27
82 °FPartly sunny.8 mph79%29.80 "HgN/A
8:00 AM82 °FPartly sunny.5 mph84%29.80 "HgN/A
7:00 AM84 °FPassing clouds.6 mph79%29.77 "HgN/A
6:00 AM84 °FPassing clouds.6 mph79%29.77 "HgN/A
5:00 AM84 °FPassing clouds.5 mph79%29.77 "HgN/A
11:00 PM
Sun, Jun 26
84 °FPassing clouds.5 mph79%29.86 "HgN/A
10:00 PM86 °FPassing clouds.2 mph75%29.83 "HgN/A
9:00 PM86 °FPassing clouds.6 mph75%29.80 "HgN/A
8:00 PM86 °FPassing clouds.5 mph75%29.77 "HgN/A
7:00 PM86 °FPartly sunny.3 mph75%29.77 "HgN/A
6:00 PM86 °FPartly sunny.2 mph79%29.77 "HgN/A
5:00 PM88 °FPartly sunny.6 mph70%29.74 "HgN/A
4:00 PM84 °FLight rain. Partly sunny.3 mph84%29.77 "HgN/A
3:00 PM84 °FLight rain. Partly sunny.5 mph84%29.80 "HgN/A
2:00 PM86 °FThunderstorms. Partly sunny.6 mph75%29.83 "HgN/A
1:00 PM88 °FThundershowers. Scattered clouds.9 mph66%29.83 "HgN/A
12:00 PM88 °FScattered showers. Partly sunny.12 mph70%29.86 "HgN/A
11:00 AM88 °FBroken clouds.13 mph70%29.86 "HgN/A
10:00 AM86 °FBroken clouds.9 mph75%29.86 "HgN/A
Weather by CustomWeather, © 2016

See weather overviewHow to use our weather pages